Location: Exeidioux
(45.6312°N, 1.6819°E)
Time: 14:39:33
(UTC+00:00)

USA 306 - Pass Details

Date: 03 March 2021
Orbit: 564 x 577 km, 54.0° (Epoch: 13 April)

Event Time Altitude Azimuth Distance (km) Brightness Sun altitude
Rises 19:59:24 0° 297° (WNW) 2,772 7.7 -24.4°
Reaches altitude 10° 20:01:54 10° 309° (NW) 1,872 6.4 -24.8°
Enters shadow 20:05:20 28° 3° (N) 1,078 4.4 -25.4°
